Wind_Speed
2 1 1 1 1 1 1 1 2 2 2 3 3 3 4 4 4 5 6 7 7 7 6 5 5 6 6 7 7 7 7 7 8 8 8 8 8 8 8 8 8 7 7
2 2 2 2 2 2 2 2 2 3 3 3 3 3 4 3 3 5 6 7 7 7 7 6 6 6 6 7 8 7 7 7 9 9 8 8 9 9 9 9 8 8 8
2 2 3 2 3 3 3 3 3 3 3 3 3 3 4 4 4 4 6 7 7 8 8 8 7 7 8 7 8 8 8 8 9 9 9 9 9 9 10 10 10 9 9
2 3 3 3 3 3 3 3 4 4 4 4 4 5 5 5 4 5 6 7 7 8 8 8 8 8 9 8 8 8 9 9 9 10 10 10 10 10 11 11 11 11 10
2 2 2 3 4 4 4 4 4 4 4 5 5 5 5 5 5 5 6 7 7 7 7 8 9 10 10 9 9 9 9 10 10 11 11 11 11 11 11 11 11 12 12
2 2 2 3 4 4 4 4 4 4 5 6 6 6 5 5 6 5 6 6 7 7 7 8 9 10 10 10 10 10 10 11 11 11 12 12 12 12 13 12 12 12 13
2 2 2 3 3 3 4 4 5 5 6 6 6 6 6 6 6 6 6 6 7 8 8 8 9 9 10 11 11 10 11 10 11 12 12 12 12 12 12 12 12 13 13
1 1 2 2 3 3 3 4 5 5 6 6 6 5 5 6 6 5 6 7 7 7 7 7 9 9 9 10 9 10 11 11 11 11 12 11 11 12 12 12 12 13 13
2 2 2 2 3 3 3 4 4 4 5 5 5 4 4 5 5 5 6 7 7 7 7 7 8 8 8 8 9 9 10 10 10 11 12 11 11 11 11 12 12 12 13
2 2 2 3 3 3 3 4 4 4 4 4 4 4 4 5 4 4 5 6 6 6 7 8 8 8 9 9 9 9 9 9 8 9 9 10 10 11 11 11 12 12 12
3 3 3 3 3 3 3 3 3 3 3 3 4 4 4 4 4 4 5 5 6 6 7 7 7 9 9 9 9 8 9 8 7 8 8 9 10 10 11 11 11 12 12
3 3 3 3 4 3 3 3 3 3 3 4 4 4 3 4 4 4 5 5 5 5 6 7 7 7 8 8 8 8 8 8 7 8 8 8 9 10 11 12 12 12 13
3 3 3 3 4 4 4 3 3 3 3 4 4 4 4 4 4 5 5 5 5 6 6 6 7 7 7 7 8 8 8 8 9 9 9 9 10 11 11 12 11 12 12
3 3 3 4 4 5 5 4 4 4 5 5 4 4 5 6 6 6 6 6 6 6 6 6 6 8 8 7 7 8 8 8 9 9 10 10 10 11 12 13 13 12 12
3 3 3 4 5 6 6 5 5 5 5 4 4 5 5 6 6 7 7 7 7 7 7 7 7 8 8 8 8 8 8 9 9 10 10 10 10 11 12 12 12 13 13
4 4 4 4 5 6 6 6 6 5 4 4 5 5 6 6 7 7 8 8 8 9 9 9 9 9 9 9 10 10 9 9 9 10 10 10 11 13 13 13 13 13 13
5 5 4 4 5 5 5 5 5 5 5 5 5 6 6 7 8 8 8 9 9 10 10 10 10 11 11 11 11 10 10 11 11 11 12 12 12 13 13 13 13 14 14
5 5 5 4 5 5 4 5 5 6 6 6 6 7 7 8 8 8 9 9 10 10 11 11 11 11 11 12 12 13 13 13 13 13 13 13 13 13 13 13 13 13 13
6 6 6 6 5 5 5 5 5 6 6 7 7 8 8 8 8 9 9 10 10 10 10 11 11 12 12 13 13 13 13 14 14 14 14 14 14 14 13 14 14 14 13
6 7 7 6 6 6 6 6 6 6 6 7 8 9 9 9 9 9 10 10 10 11 11 11 12 12 12 13 13 13 13 14 14 14 14 14 14 14 13 14 14 14 14
8 8 7 7 7 7 7 7 7 7 7 8 9 10 10 10 10 10 10 10 11 11 12 12 13 13 13 13 13 13 14 14 14 14 15 15 14 14 14 14 15 14 14
9 9 8 8 8 9 8 8 8 8 8 9 10 10 11 11 11 11 11 11 11 12 12 13 13 14 14 14 14 14 14 14 15 15 15 15 15 15 15 15 16 16 16
10 10 9 9 9 9 9 9 9 9 9 10 10 11 11 11 11 12 12 12 12 12 13 13 13 13 13 14 14 14 14 14 14 14 15 15 15 16 16 16 16 17 16
11 11 11 10 10 10 10 10 10 11 10 10 10 11 11 12 12 13 13 13 13 13 13 14 13 13 14 14 14 14 14 14 14 14 15 16 16 16 16 16 16 17 17
12 12 12 11 11 11 11 12 12 12 12 12 12 12 12 12 13 13 13 13 14 14 14 14 14 14 14 15 15 15 15 15 15 15 15 16 16 17 17 17 17 17 18
14 14 13 13 13 13 13 13 13 13 13 13 13 13 13 14 14 13 13 14 14 14 14 15 15 15 15 15 15 15 15 15 15 16 16 16 16 17 17 18 18 18 19
Wind_Direction
216 207 215 230 244 257 256 250 256 253 264 275 271 256 246 254 246 223 224 223 217 215 218 223 224 225 220 215 218 221 218 216 212 210 213 213 211 212 215 221 221 218 218
225 221 231 242 244 254 251 252 262 267 274 280 274 264 252 256 246 225 225 220 219 220 221 224 231 228 226 228 226 224 224 225 213 218 222 216 220 220 222 227 226 225 225
238 246 241 228 245 254 250 251 259 268 278 278 280 276 272 272 271 255 230 222 226 228 229 231 234 234 232 234 233 231 228 228 225 226 226 223 228 229 229 231 233 235 237
244 251 242 230 241 254 256 255 259 266 274 277 280 277 277 280 277 259 240 235 238 236 235 239 239 240 240 239 238 241 238 235 238 236 232 233 234 238 238 240 240 242 243
261 259 244 242 245 250 254 253 258 265 270 276 282 279 278 279 271 260 247 243 242 237 240 242 242 242 243 243 244 246 248 245 245 242 239 236 238 244 246 244 245 247 247
264 262 258 250 248 248 249 252 255 266 274 280 281 281 274 271 269 265 260 252 245 244 246 244 245 244 244 246 249 249 250 250 248 245 243 242 242 248 250 248 250 249 244
263 272 267 255 248 252 250 250 260 268 275 281 281 281 274 268 266 270 265 260 256 254 250 248 247 246 245 247 251 252 251 250 249 250 246 243 246 247 250 249 249 245 243
267 275 277 269 259 261 259 259 263 266 272 277 280 283 277 272 266 268 273 270 267 258 258 251 247 249 248 249 253 255 254 254 252 250 246 248 249 246 247 248 250 247 246
281 281 277 269 266 267 272 270 267 268 270 273 278 282 278 273 267 269 275 275 270 255 255 252 249 249 253 256 254 253 256 255 253 249 246 243 246 248 250 251 252 249 247
269 267 271 272 272 270 277 275 269 269 272 274 277 272 273 274 269 271 275 273 270 259 255 256 256 251 253 259 260 260 263 264 258 250 249 250 250 250 248 248 246 249 250
266 264 262 267 272 270 273 278 273 271 269 268 273 266 269 270 270 269 266 266 266 256 252 252 254 250 254 261 262 264 265 264 258 251 251 253 250 247 246 246 249 252 251
267 270 264 270 278 274 271 273 283 287 277 271 269 266 265 264 265 266 269 274 273 260 261 249 251 254 258 261 262 262 263 259 257 254 253 256 254 254 256 256 257 257 256
268 273 269 267 268 268 270 271 280 286 283 280 275 270 271 268 266 270 275 278 277 275 275 261 252 255 259 262 265 266 264 256 255 256 258 258 259 260 260 260 261 261 260
260 270 275 268 267 268 270 273 279 284 284 282 278 274 273 272 274 277 272 277 277 279 273 268 266 267 267 262 269 269 265 261 261 262 260 258 258 259 260 263 264 266 263
253 261 263 262 262 264 265 266 272 278 275 274 274 274 275 279 278 280 277 276 276 276 275 275 272 273 273 272 272 270 272 266 264 264 261 258 259 260 260 263 265 267 265
259 266 271 267 266 266 267 268 271 269 268 269 270 274 279 280 279 278 277 278 280 281 279 278 276 274 275 275 273 270 271 269 264 265 267 267 264 263 264 267 266 266 264
258 260 263 264 267 269 269 265 262 263 266 266 270 276 279 279 280 281 281 280 279 278 277 277 276 276 275 275 275 269 269 271 269 268 269 271 271 270 269 269 268 270 267
255 254 261 271 277 274 265 261 264 268 271 273 275 279 280 281 283 285 285 283 280 277 275 276 276 277 278 278 277 275 277 278 276 275 274 272 272 271 269 269 271 273 272
260 259 265 270 275 270 270 272 274 273 275 278 280 281 282 282 284 285 284 283 283 281 280 279 278 278 279 279 278 279 280 281 279 279 278 276 275 273 270 267 268 270 271
261 262 266 268 270 271 274 280 284 282 280 282 286 286 284 284 284 284 285 286 286 285 284 282 280 281 282 282 280 280 281 282 281 279 278 277 273 271 269 266 266 267 268
262 262 261 265 271 272 272 278 285 289 290 289 289 287 285 286 286 284 287 287 287 287 286 284 283 283 283 282 281 280 279 279 279 279 277 274 272 270 270 267 266 266 267
261 261 261 262 268 272 272 274 280 285 291 292 292 288 286 286 286 285 287 287 289 291 289 286 284 283 282 281 281 280 279 278 278 278 276 273 272 272 272 270 269 267 268
261 262 264 265 268 271 272 273 276 281 287 292 293 290 289 291 291 289 288 288 288 290 291 289 287 283 282 281 280 280 279 277 276 274 273 271 271 272 272 273 271 268 268
261 264 263 263 263 268 271 272 274 279 284 290 294 294 295 293 292 290 289 290 291 291 291 289 286 284 284 283 282 280 279 277 277 274 272 272 272 272 272 271 270 269 270
260 262 260 259 259 262 267 270 272 276 282 287 290 292 293 293 292 290 288 288 289 291 292 290 288 287 286 285 284 282 280 278 278 277 275 274 274 274 272 270 270 269 271
259 260 260 260 261 263 265 269 273 278 281 284 286 288 291 292 290 288 287 286 286 287 289 289 289 288 288 286 283 281 280 279 279 278 277 276 276 275 273 271 272 270 269
Height
5871 5870 5871 5871 5871 5871 5872 5872 5872 5872 5872 5872 5872 5872 5871 5871 5869 5870 5871 5872 5872 5873 5874 5874 5874 5874 5875 5875 5875 5876 5876 5877 5877 5877 5878 5878 5879 5880 5880 5881 5881 5882 5882
5870 5870 5870 5870 5870 5871 5871 5871 5871 5871 5871 5871 5871 5871 5871 5871 5870 5870 5871 5871 5872 5872 5873 5873 5874 5874 5874 5874 5875 5875 5875 5876 5876 5876 5877 5878 5878 5879 5879 5880 5881 5881 5881
5869 5869 5869 5869 5870 5870 5870 5871 5871 5871 5871 5871 5871 5871 5870 5870 5870 5870 5870 5871 5871 5872 5872 5873 5873 5873 5873 5874 5874 5874 5874 5875 5875 5876 5876 5877 5877 5878 5878 5879 5880 5880 5880
5868 5868 5868 5869 5869 5869 5870 5870 5870 5870 5870 5870 5870 5870 5870 5870 5870 5870 5870 5870 5871 5871 5871 5872 5872 5872 5872 5873 5873 5873 5874 5874 5874 5875 5875 5876 5876 5876 5877 5877 5878 5878 5879
5867 5868 5868 5868 5868 5869 5869 5869 5869 5870 5870 5870 5869 5869 5869 5869 5869 5869 5869 5869 5870 5870 5870 5870 5871 5871 5871 5872 5872 5872 5872 5872 5873 5873 5874 5874 5874 5875 5875 5875 5876 5876 5876
5867 5867 5867 5867 5868 5868 5868 5868 5869 5869 5869 5869 5868 5868 5868 5868 5868 5868 5868 5868 5869 5869 5869 5869 5869 5869 5870 5870 5870 5871 5871 5871 5871 5871 5872 5872 5872 5873 5873 5873 5874 5873 5873
5866 5866 5866 5867 5867 5867 5867 5867 5868 5868 5868 5868 5868 5867 5867 5867 5868 5867 5867 5867 5867 5867 5867 5867 5868 5868 5868 5868 5868 5869 5869 5869 5869 5869 5869 5870 5870 5871 5871 5871 5872 5871 5871
5865 5866 5866 5866 5866 5866 5866 5867 5867 5867 5867 5867 5867 5867 5866 5866 5866 5866 5866 5866 5866 5865 5866 5866 5866 5866 5866 5866 5866 5866 5866 5866 5866 5866 5867 5867 5868 5868 5869 5869 5870 5870 5870
5865 5865 5865 5865 5865 5865 5866 5866 5866 5866 5866 5866 5865 5865 5865 5865 5865 5865 5865 5865 5864 5864 5864 5864 5864 5864 5864 5864 5864 5864 5864 5863 5863 5864 5865 5865 5866 5866 5866 5867 5867 5867 5868
5864 5864 5864 5864 5865 5865 5865 5865 5865 5865 5865 5865 5864 5864 5864 5864 5864 5864 5864 5864 5863 5862 5862 5863 5863 5863 5862 5862 5862 5862 5861 5861 5861 5861 5862 5863 5863 5864 5864 5864 5865 5865 5865
5863 5863 5863 5864 5864 5864 5864 5864 5864 5864 5863 5863 5863 5864 5863 5863 5863 5863 5863 5862 5862 5861 5861 5861 5861 5861 5861 5860 5860 5860 5859 5859 5859 5860 5861 5861 5861 5861 5862 5862 5862 5863 5863
5862 5862 5862 5863 5863 5863 5863 5863 5863 5863 5862 5862 5862 5862 5862 5862 5862 5862 5862 5861 5861 5860 5860 5859 5859 5859 5859 5859 5859 5858 5858 5858 5858 5859 5859 5859 5859 5859 5859 5860 5860 5860 5860
5861 5861 5861 5861 5862 5862 5862 5862 5862 5862 5861 5861 5861 5861 5861 5861 5861 5861 5861 5860 5860 5859 5859 5858 5858 5857 5857 5857 5857 5857 5856 5856 5856 5857 5857 5857 5857 5857 5857 5857 5857 5857 5857
5860 5860 5860 5860 5860 5860 5860 5860 5860 5860 5860 5860 5860 5860 5860 5860 5860 5859 5859 5859 5858 5858 5857 5857 5856 5856 5856 5856 5855 5855 5855 5854 5854 5855 5855 5855 5855 5854 5855 5855 5855 5855 5855
5859 5859 5859 5859 5859 5859 5859 5859 5859 5859 5859 5858 5858 5858 5858 5858 5858 5857 5857 5857 5856 5856 5855 5855 5855 5855 5854 5854 5853 5853 5853 5852 5852 5852 5852 5852 5852 5852 5852 5852 5852 5852 5851
5857 5857 5858 5858 5858 5858 5858 5857 5857 5857 5857 5857 5857 5856 5856 5856 5856 5855 5855 5855 5854 5854 5853 5853 5852 5852 5852 5851 5851 5851 5850 5850 5850 5849 5849 5849 5849 5849 5849 5849 5849 5848 5848
5856 5856 5856 5856 5856 5856 5856 5856 5856 5855 5855 5855 5855 5855 5854 5854 5854 5853 5853 5852 5852 5851 5851 5851 5850 5850 5850 5849 5849 5848 5848 5847 5847 5846 5846 5846 5846 5846 5845 5845 5845 5845 5845
5854 5854 5854 5854 5854 5854 5854 5854 5854 5854 5853 5853 5853 5853 5852 5852 5851 5851 5850 5850 5849 5849 5848 5848 5847 5847 5846 5846 5845 5845 5844 5844 5844 5843 5843 5842 5842 5842 5842 5842 5842 5841 5841
5852 5852 5853 5853 5852 5852 5852 5852 5852 5852 5851 5851 5851 5851 5850 5850 5849 5849 5848 5847 5847 5846 5845 5845 5844 5844 5843 5843 5842 5841 5841 5840 5840 5839 5839 5839 5838 5838 5838 5838 5838 5838 5838
5850 5850 5851 5850 5850 5850 5850 5850 5850 5850 5849 5849 5849 5848 5847 5847 5846 5846 5845 5844 5843 5843 5842 5842 5841 5840 5840 5839 5838 5838 5837 5836 5836 5835 5835 5835 5834 5834 5834 5834 5834 5834 5834
5848 5848 5848 5848 5848 5848 5848 5848 5848 5848 5847 5847 5846 5845 5845 5844 5844 5843 5842 5841 5840 5840 5839 5838 5837 5836 5836 5835 5835 5834 5833 5833 5832 5832 5831 5831 5830 5830 5830 5830 5830 5830 5830
5846 5846 5846 5846 5846 5846 5846 5846 5845 5845 5845 5845 5844 5843 5842 5841 5841 5840 5839 5838 5837 5836 5835 5834 5833 5832 5832 5831 5831 5830 5830 5829 5828 5828 5827 5827 5826 5826 5826 5826 5826 5826 5826
5843 5843 5843 5843 5843 5843 5843 5843 5843 5843 5842 5842 5841 5840 5839 5838 5837 5836 5835 5835 5834 5833 5832 5830 5829 5828 5828 5827 5827 5826 5826 5825 5824 5824 5823 5823 5822 5822 5822 5821 5821 5821 5821
5839 5839 5840 5840 5840 5840 5840 5840 5840 5840 5840 5839 5838 5837 5836 5835 5834 5833 5832 5831 5830 5829 5828 5826 5825 5824 5824 5823 5822 5822 5821 5821 5820 5820 5819 5818 5818 5817 5817 5817 5816 5816 5816
5836 5836 5836 5836 5837 5837 5837 5837 5837 5837 5836 5836 5835 5834 5833 5832 5831 5830 5829 5828 5826 5825 5824 5823 5821 5820 5820 5819 5818 5817 5817 5816 5815 5815 5814 5814 5813 5813 5812 5812 5811 5811 5811
5832 5832 5832 5833 5833 5834 5834 5833 5833 5833 5832 5832 5831 5830 5829 5828 5827 5826 5825 5824 5823 5821 5820 5819 5817 5816 5815 5815 5814 5813 5812 5811 5811 5810 5810 5809 5808 5808 5807 5806 5806 5806 5805